STARLINK-11497, 62470

Orbit data source: Space-Track

STARLINK-11497, 62470 is a payload satellite owned by SpaceX/Seattle (US) in LEO that was launched on Tue, 31 Dec 2024 UTC via an FALCON 9 launch vehicle from the Air Force Eastern Test Range (AFETR). Payloads include a variety of satellites, spacecraft, and rockets equipped with specific instruments for various scientific and technological missions. These include communications satellites like Starlink; space stations such as the ISS; scientific satellites like the Hubble; Earth observation satellites from companies like Planet Labs, Umbra, and HawkEye 360; GPS; miniature CubeSats for education and research; and military/defense satellites.

Loading next visibility...
STARLINK-11497 details
Identifier
62470, 2024-254J
Orbit
LEO
Last TLE update23 hours ago
Origin
Flag of USSpaceX/Seattle (US)
ManufacturerSpaceX/Seattle
MissionOperational Commercial Communications
Bus & MotorSTARLINK V2M, Unknown motor
Mass730 kg wet, ~700 kg dry
Launch date (UTC)
2024-12-31 (1 month ago)
Launch vehicle
FALCON 9
Launch site
Air Force Eastern Test Range (AFETR)
Object type
Payload
Rocket body
Debris
Shape & HBRBox + 2 Pan, 29 m
Radar Cross Section36.964 m², Large (>1 m²)

Expand to show TLE details & history

TLE from 23 hours ago
0 STARLINK-11497
1 62470U 24254J   25035.25061307  .00001145  00000-0  94455-5 0  9998
2 62470  43.0008 105.8410 0001907 283.0301  77.0356 15.77853731  6729
Epoch: 2025-02-04T06:00Z
Definitive object data (Epoch: 2025-02-04T06:00:52.969Z)
Latitude-0.00003°
Longitude-119.03833°
Altitude336.006 km
Speed7.709 km/s
True Right ascension07h 03m 21s
True Declination0° 00' 00"
Sunlit
Object was in full shadow at TLE epoch
Visualization TLE readout
Latitude-17.26046°
Longitude-144.14499°
Altitude339.167 km
Speed7.707 km/s
Apparent Right ascension02h 31m 26s
Apparent Declination-67° 42' 46"
Sunlit
Object is in full shadow
Visualization observer readout
Local Sidereal Time06:43:32
Azimuth202.4° SSW
Elevation-27.503°
Doppler factor1
Orbital elements
Apogee altitude339.791 km
Perigee altitude337.229 km
Semi-major axis6,716.647 km
Eccentricity0.0001907
Inclination43.0008°
RAAN105.841°
Arg. of periapsis283.0301°
True anomaly77.0569°
Mean anomaly77.0356°
Eccentric anomaly77.04625°
Mean motion3.94289 °/min
BSTAR0.0000094455
Orbital period91.3 mins
Loading maneuver chart data...
Loading historical data...
Loading historical data...
Loading historical data...
Loading historical data...
Loading historical data...
Loading historical data...
Loading historical data...

STARLINK-11497 Visibility forecast

Observer location: undefined°, undefined

Span
Click to sort rows by Start time (UTC) header in descending order
Start Az.
Max El. time (UTC)
Max El. Az.
Max El.
End time (UTC)
End Az.
5 mins2025-02-05 08:03:39.635Z227.79° WSW2025-02-05 08:06:39.635Z127.039° SE32.877°2025-02-05 08:08:39.635Z82.494° E
4 mins2025-02-05 09:40:39.635Z287.82° WNW2025-02-05 09:41:39.635Z329.114° NNW36.22°2025-02-05 09:44:39.635Z68.346° E
|